CXCMD SUTR-SUCH

Flight info

Callsign CXCMD
Flight time 0h 54m
Altitude 3500
Route VISUAL
Aircraft PA36/L-SDE3FGHIRWY/LB1

Departure

Time 2026-05-06 13:06
Airport Treinta y Tres Airport (SUTR)

Arrival

Time 2026-05-06 14:00
Airport Chuy Airport (SUCH)
Time Latitude Longitude Altitude Speed Heading
2026-05-06 12:59 -33.19776 -54.34844 199 ft 0 kts 85°
2026-05-06 13:00 -33.19777 -54.34844 197 ft 0 kts 85°
2026-05-06 13:01 -33.19776 -54.34844 197 ft 0 kts 85°
2026-05-06 13:01 -33.19777 -54.34844 197 ft 0 kts 85°
2026-05-06 13:02 -33.19776 -54.34834 203 ft 5 kts 91°
2026-05-06 13:02 -33.19789 -54.34772 204 ft 6 kts 137°
2026-05-06 13:03 -33.19808 -54.34711 212 ft 10 kts 127°
2026-05-06 13:03 -33.19902 -54.34686 202 ft 18 kts 174°
2026-05-06 13:03 -33.19996 -54.34690 205 ft 8 kts 190°
2026-05-06 13:03 -33.19997 -54.34677 208 ft 1 kts 353°
2026-05-06 13:04 -33.19996 -54.34677 208 ft 0 kts 353°
2026-05-06 13:05 -33.19973 -54.34681 206 ft 20 kts 352°
2026-05-06 13:05 -33.19660 -54.34710 212 ft 70 kts 354°
2026-05-06 13:05 -33.19108 -54.34808 451 ft 82 kts 348°
2026-05-06 13:05 -33.18602 -54.35159 597 ft 92 kts 328°
2026-05-06 13:06 -33.18070 -54.35611 790 ft 94 kts 327°
2026-05-06 13:06 -33.17625 -54.36189 1053 ft 92 kts 309°
2026-05-06 13:06 -33.17352 -54.36878 1198 ft 100 kts 302°
2026-05-06 13:06 -33.17094 -54.37680 1279 ft 106 kts 282°
2026-05-06 13:07 -33.17543 -54.38442 1279 ft 135 kts 203°
2026-05-06 13:07 -33.18527 -54.38598 1160 ft 148 kts 181°
2026-05-06 13:07 -33.19463 -54.38662 1338 ft 124 kts 188°
2026-05-06 13:07 -33.20295 -54.38854 1336 ft 121 kts 195°
2026-05-06 13:08 -33.21119 -54.39073 1291 ft 121 kts 192°
2026-05-06 13:08 -33.21930 -54.39309 1306 ft 121 kts 198°
2026-05-06 13:08 -33.22730 -54.39581 1394 ft 118 kts 202°
2026-05-06 13:08 -33.23502 -54.39961 1412 ft 120 kts 211°
2026-05-06 13:09 -33.24213 -54.40428 1529 ft 111 kts 214°
2026-05-06 13:09 -33.24886 -54.40796 1601 ft 110 kts 206°
2026-05-06 13:09 -33.25603 -54.41198 1669 ft 118 kts 213°
2026-05-06 13:09 -33.26345 -54.41691 1720 ft 126 kts 212°
2026-05-06 13:10 -33.27119 -54.42212 1743 ft 129 kts 214°
2026-05-06 13:10 -33.27933 -54.42789 1784 ft 140 kts 216°
2026-05-06 13:10 -33.28780 -54.43394 1957 ft 140 kts 217°
2026-05-06 13:10 -33.29588 -54.44098 1908 ft 155 kts 220°
2026-05-06 13:11 -33.30507 -54.44865 1837 ft 164 kts 216°
2026-05-06 13:11 -33.31523 -54.45564 1670 ft 176 kts 214°
2026-05-06 13:11 -33.32525 -54.46311 1792 ft 166 kts 217°
2026-05-06 13:11 -33.33493 -54.47065 1779 ft 166 kts 218°
2026-05-06 13:12 -33.34480 -54.47804 1767 ft 168 kts 216°
2026-05-06 13:12 -33.35477 -54.48581 1682 ft 175 kts 217°
2026-05-06 13:12 -33.36543 -54.49329 1551 ft 179 kts 212°
2026-05-06 13:12 -33.37652 -54.50034 1435 ft 182 kts 208°
2026-05-06 13:13 -33.38799 -54.50690 1313 ft 184 kts 207°
2026-05-06 13:13 -33.39912 -54.51300 1184 ft 168 kts 204°
2026-05-06 13:13 -33.40976 -54.51739 1048 ft 157 kts 200°
2026-05-06 13:13 -33.41988 -54.52105 985 ft 146 kts 197°
2026-05-06 13:14 -33.42938 -54.52406 972 ft 137 kts 195°
2026-05-06 13:14 -33.43814 -54.52678 967 ft 125 kts 195°
2026-05-06 13:14 -33.44635 -54.52924 969 ft 122 kts 193°
2026-05-06 13:14 -33.44988 -54.52972 960 ft 119 kts 172°
2026-05-06 13:15 -33.45061 -54.52961 963 ft 118 kts 166°
2026-05-06 13:16 -33.45322 -54.52866 982 ft 112 kts 155°
2026-05-06 13:16 -33.45841 -54.52263 957 ft 103 kts 120°
2026-05-06 13:16 -33.46244 -54.51560 954 ft 103 kts 113°
2026-05-06 13:17 -33.46566 -54.50802 974 ft 99 kts 112°
2026-05-06 13:17 -33.46875 -54.50125 1023 ft 86 kts 113°
2026-05-06 13:17 -33.47126 -54.49523 994 ft 79 kts 112°
2026-05-06 13:17 -33.47428 -54.48860 1079 ft 108 kts 112°
2026-05-06 13:18 -33.47814 -54.47968 1237 ft 129 kts 114°
2026-05-06 13:18 -33.48243 -54.46968 1357 ft 139 kts 112°
2026-05-06 13:18 -33.48693 -54.45911 1404 ft 152 kts 113°
2026-05-06 13:18 -33.49179 -54.44727 1362 ft 163 kts 114°
2026-05-06 13:19 -33.49744 -54.43509 1325 ft 171 kts 118°
2026-05-06 13:19 -33.50401 -54.42301 1271 ft 175 kts 122°
2026-05-06 13:19 -33.51103 -54.41084 1207 ft 179 kts 121°
2026-05-06 13:19 -33.51824 -54.39861 1144 ft 178 kts 123°
2026-05-06 13:20 -33.52568 -54.38718 1061 ft 171 kts 130°
2026-05-06 13:20 -33.53404 -54.37750 984 ft 165 kts 138°
2026-05-06 13:20 -33.54331 -54.36970 950 ft 160 kts 144°
2026-05-06 13:20 -33.55239 -54.36242 948 ft 158 kts 144°
2026-05-06 13:21 -33.56135 -54.35502 941 ft 154 kts 144°
2026-05-06 13:21 -33.57044 -54.34857 942 ft 149 kts 154°
2026-05-06 13:21 -33.58008 -54.34451 944 ft 144 kts 164°
2026-05-06 13:21 -33.58971 -54.34125 940 ft 142 kts 159°
2026-05-06 13:22 -33.59100 -54.34068 941 ft 142 kts 158°
2026-05-06 13:22 -33.59443 -54.33901 945 ft 143 kts 155°
2026-05-06 13:22 -33.60355 -54.33445 945 ft 144 kts 155°
2026-05-06 13:23 -33.61185 -54.32810 940 ft 141 kts 137°
2026-05-06 13:23 -33.61864 -54.31993 942 ft 135 kts 127°
2026-05-06 13:23 -33.62444 -54.31127 939 ft 130 kts 124°
2026-05-06 13:23 -33.62978 -54.30275 1006 ft 128 kts 123°
2026-05-06 13:24 -33.63476 -54.29387 1009 ft 128 kts 120°
2026-05-06 13:24 -33.63949 -54.28487 1008 ft 127 kts 118°
2026-05-06 13:24 -33.64402 -54.27575 1019 ft 129 kts 117°
2026-05-06 13:24 -33.64707 -54.26991 1016 ft 131 kts 120°
2026-05-06 13:25 -33.65163 -54.26135 1019 ft 133 kts 119°
2026-05-06 13:25 -33.65655 -54.25219 1023 ft 132 kts 123°
2026-05-06 13:25 -33.65786 -54.24993 1026 ft 132 kts 122°
2026-05-06 13:26 -33.66220 -54.24232 1029 ft 138 kts 120°
2026-05-06 13:26 -33.66781 -54.23269 1024 ft 142 kts 122°
2026-05-06 13:26 -33.67216 -54.22528 1027 ft 141 kts 122°
2026-05-06 13:28 -33.67253 -54.22463 1023 ft 141 kts 122°
2026-05-06 13:28 -33.67818 -54.21507 1027 ft 142 kts 122°
2026-05-06 13:28 -33.68405 -54.20545 1027 ft 147 kts 123°
2026-05-06 13:29 -33.68997 -54.19539 1023 ft 146 kts 126°
2026-05-06 13:29 -33.69750 -54.18710 1028 ft 148 kts 138°
2026-05-06 13:29 -33.70543 -54.17902 1024 ft 152 kts 136°
2026-05-06 13:29 -33.71340 -54.17086 1020 ft 148 kts 138°
2026-05-06 13:30 -33.72106 -54.16270 1017 ft 146 kts 136°
2026-05-06 13:30 -33.72875 -54.15462 1023 ft 149 kts 136°
2026-05-06 13:30 -33.73671 -54.14626 1027 ft 154 kts 136°
2026-05-06 13:30 -33.74489 -54.13811 1029 ft 148 kts 137°
2026-05-06 13:32 -33.74640 -54.13658 1031 ft 145 kts 138°
2026-05-06 13:32 -33.75348 -54.12860 1017 ft 134 kts 126°
2026-05-06 13:32 -33.75911 -54.12022 1015 ft 122 kts 124°
2026-05-06 13:32 -33.76419 -54.11253 1011 ft 112 kts 112°
2026-05-06 13:33 -33.76635 -54.10711 1012 ft 107 kts 108°
2026-05-06 13:33 -33.76951 -54.09940 1013 ft 100 kts 108°
2026-05-06 13:33 -33.77352 -54.08930 1017 ft 100 kts 105°
2026-05-06 13:33 -33.77638 -54.08148 1018 ft 104 kts 107°
2026-05-06 13:34 -33.77828 -54.07624 995 ft 102 kts 108°
2026-05-06 13:34 -33.78223 -54.06578 1033 ft 97 kts 109°
2026-05-06 13:34 -33.78414 -54.06105 1136 ft 94 kts 110°
2026-05-06 13:34 -33.78691 -54.05424 1280 ft 87 kts 109°
2026-05-06 13:35 -33.78945 -54.04764 1440 ft 88 kts 109°
2026-05-06 13:35 -33.79212 -54.04078 1528 ft 98 kts 108°
2026-05-06 13:35 -33.79493 -54.03272 1541 ft 110 kts 108°
2026-05-06 13:35 -33.79801 -54.02398 1545 ft 117 kts 109°
2026-05-06 13:36 -33.80123 -54.01447 1534 ft 127 kts 109°
2026-05-06 13:36 -33.80446 -54.00433 1536 ft 130 kts 107°
2026-05-06 13:36 -33.80789 -53.99403 1530 ft 134 kts 108°
2026-05-06 13:36 -33.81144 -53.98359 1531 ft 135 kts 109°
2026-05-06 13:37 -33.81489 -53.97308 1528 ft 135 kts 108°
2026-05-06 13:37 -33.81851 -53.96274 1534 ft 138 kts 114°
2026-05-06 13:37 -33.82285 -53.95232 1531 ft 141 kts 114°
2026-05-06 13:37 -33.82710 -53.94178 1523 ft 138 kts 114°
2026-05-06 13:38 -33.83140 -53.93160 1524 ft 136 kts 115°
2026-05-06 13:38 -33.83574 -53.92132 1529 ft 140 kts 116°
2026-05-06 13:38 -33.84120 -53.91146 1524 ft 142 kts 122°
2026-05-06 13:38 -33.84609 -53.90313 1532 ft 142 kts 122°
2026-05-06 13:41 -33.85119 -53.89448 1533 ft 143 kts 123°
2026-05-06 13:42 -33.85699 -53.88467 1525 ft 143 kts 123°
2026-05-06 13:42 -33.86235 -53.87478 1531 ft 140 kts 117°
2026-05-06 13:42 -33.86640 -53.86409 1526 ft 141 kts 109°
2026-05-06 13:42 -33.87029 -53.85312 1536 ft 145 kts 109°
2026-05-06 13:43 -33.87426 -53.84183 1532 ft 147 kts 109°
2026-05-06 13:43 -33.87843 -53.83052 1536 ft 148 kts 109°
2026-05-06 13:43 -33.88250 -53.81910 1536 ft 149 kts 110°
2026-05-06 13:43 -33.88610 -53.80754 1535 ft 147 kts 106°
2026-05-06 13:44 -33.88932 -53.79592 1536 ft 146 kts 106°
2026-05-06 13:44 -33.89262 -53.78435 1534 ft 146 kts 107°
2026-05-06 13:44 -33.89580 -53.77284 1532 ft 145 kts 105°
2026-05-06 13:44 -33.89906 -53.76133 1532 ft 145 kts 106°
2026-05-06 13:45 -33.90113 -53.74954 1526 ft 142 kts 95°
2026-05-06 13:45 -33.90400 -53.72611 1516 ft 141 kts 96°
2026-05-06 13:45 -33.90543 -53.71447 1520 ft 140 kts 96°
2026-05-06 13:46 -33.90684 -53.70283 1524 ft 141 kts 95°
2026-05-06 13:46 -33.90823 -53.69132 1520 ft 140 kts 96°
2026-05-06 13:46 -33.90970 -53.67973 1524 ft 141 kts 97°
2026-05-06 13:46 -33.91107 -53.66802 1525 ft 141 kts 95°
2026-05-06 13:47 -33.91252 -53.65622 1525 ft 143 kts 96°
2026-05-06 13:47 -33.91400 -53.64434 1533 ft 145 kts 96°
2026-05-06 13:47 -33.91551 -53.63233 1529 ft 145 kts 95°
2026-05-06 13:47 -33.91713 -53.62043 1528 ft 144 kts 98°
2026-05-06 13:48 -33.91826 -53.60833 1485 ft 145 kts 96°
2026-05-06 13:48 -33.91917 -53.59621 1491 ft 146 kts 96°
2026-05-06 13:48 -33.92007 -53.58402 1491 ft 146 kts 96°
2026-05-06 13:48 -33.92083 -53.57188 1476 ft 145 kts 89°
2026-05-06 13:49 -33.91911 -53.56003 1471 ft 143 kts 78°
2026-05-06 13:49 -33.91630 -53.54858 1470 ft 143 kts 71°
2026-05-06 13:49 -33.91199 -53.53787 1472 ft 142 kts 54°
2026-05-06 13:49 -33.90565 -53.52877 1467 ft 142 kts 41°
2026-05-06 13:50 -33.89729 -53.52283 1471 ft 142 kts 24°
2026-05-06 13:50 -33.88812 -53.51846 1476 ft 142 kts 17°
2026-05-06 13:50 -33.87867 -53.51521 1482 ft 141 kts 15°
2026-05-06 13:50 -33.86926 -53.51200 1493 ft 141 kts 15°
2026-05-06 13:51 -33.85976 -53.50877 1493 ft 143 kts 15°
2026-05-06 13:51 -33.85023 -53.50552 1486 ft 142 kts 15°
2026-05-06 13:51 -33.84072 -53.50227 1484 ft 143 kts 15°
2026-05-06 13:51 -33.83114 -53.49901 1488 ft 143 kts 15°
2026-05-06 13:52 -33.82157 -53.49574 1492 ft 143 kts 15°
2026-05-06 13:52 -33.81198 -53.49248 1489 ft 142 kts 15°
2026-05-06 13:52 -33.80243 -53.48924 1484 ft 143 kts 15°
2026-05-06 13:52 -33.79288 -53.48599 1490 ft 142 kts 15°
2026-05-06 13:53 -33.78332 -53.48274 1487 ft 142 kts 15°
2026-05-06 13:53 -33.77421 -53.47962 1375 ft 128 kts 16°
2026-05-06 13:53 -33.76630 -53.47695 1167 ft 109 kts 14°
2026-05-06 13:53 -33.75964 -53.47476 1048 ft 94 kts 14°
2026-05-06 13:54 -33.75357 -53.47262 954 ft 87 kts 21°
2026-05-06 13:54 -33.74820 -53.46987 855 ft 81 kts 21°
2026-05-06 13:54 -33.74287 -53.46741 756 ft 85 kts 21°
2026-05-06 13:54 -33.74004 -53.46607 728 ft 86 kts 22°
2026-05-06 13:55 -33.73549 -53.46386 666 ft 88 kts 21°
2026-05-06 13:55 -33.73006 -53.46143 680 ft 81 kts 18°
2026-05-06 13:55 -33.72486 -53.45924 698 ft 76 kts 21°
2026-05-06 13:55 -33.71945 -53.45680 682 ft 87 kts 19°
2026-05-06 13:56 -33.71372 -53.45447 467 ft 92 kts
2026-05-06 13:56 -33.70879 -53.45266 615 ft 80 kts 46°
2026-05-06 13:56 -33.70849 -53.44660 783 ft 75 kts 124°
2026-05-06 13:56 -33.71281 -53.44332 900 ft 79 kts 178°
2026-05-06 13:57 -33.71827 -53.44397 1005 ft 83 kts 191°
2026-05-06 13:57 -33.72391 -53.44495 1115 ft 84 kts 188°
2026-05-06 13:57 -33.72972 -53.44561 1244 ft 84 kts 187°
2026-05-06 13:57 -33.73510 -53.44772 1374 ft 80 kts 227°
2026-05-06 13:58 -33.73676 -53.45411 1454 ft 86 kts 277°
2026-05-06 13:58 -33.73359 -53.46034 1386 ft 85 kts 321°
2026-05-06 13:58 -33.72868 -53.46222 1122 ft 73 kts
2026-05-06 13:58 -33.72383 -53.46055 1039 ft 73 kts 17°
2026-05-06 13:59 -33.71849 -53.45781 786 ft 96 kts 42°
2026-05-06 13:59 -33.71439 -53.45326 625 ft 74 kts 342°
2026-05-06 13:59 -33.71211 -53.45578 465 ft 69 kts 297°
2026-05-06 13:59 -33.71187 -53.45635 433 ft 69 kts 293°
2026-05-06 14:00 -33.71135 -53.46196 224 ft 65 kts 274°
2026-05-06 14:00 -33.71109 -53.46728 80 ft 62 kts 272°
2026-05-06 14:00 -33.71084 -53.47167 68 ft 35 kts 277°
2026-05-06 14:00 -33.71097 -53.47239 65 ft 11 kts 89°
2026-05-06 14:01 -33.71104 -53.47122 65 ft 17 kts 92°
2026-05-06 14:01 -33.71115 -53.46974 57 ft 15 kts 98°
2026-05-06 14:01 -33.71118 -53.46886 54 ft 5 kts 92°
2026-05-06 14:01 -33.71118 -53.46879 54 ft 0 kts 82°
2026-05-06 14:02 -33.71113 -53.46858 55 ft 10 kts 72°
2026-05-06 14:02 -33.71135 -53.46794 54 ft 7 kts 123°
2026-05-06 14:02 -33.71133 -53.46771 52 ft 0 kts 350°
2026-05-06 14:18 -33.71128 -53.46772 54 ft 0 kts 350°
2026-05-06 14:19 -33.71118 -53.46779 51 ft 11 kts 316°
2026-05-06 14:19 -33.71111 -53.46991 61 ft 33 kts 273°
2026-05-06 14:19 -33.71094 -53.47255 71 ft 31 kts 274°
2026-05-06 14:20 -33.71085 -53.47500 81 ft 27 kts 270°
2026-05-06 14:20 -33.71063 -53.47542 82 ft 0 kts 95°
2026-05-06 14:20 -33.71063 -53.47538 82 ft 2 kts 95°
2026-05-06 14:20 -33.71072 -53.47309 72 ft 67 kts 92°
2026-05-06 14:21 -33.71110 -53.46597 266 ft 88 kts 79°
2026-05-06 14:21 -33.70739 -53.46041 532 ft 95 kts 24°
2026-05-06 14:21 -33.70165 -53.45677 884 ft 94 kts 32°
2026-05-06 14:21 -33.69576 -53.45146 1033 ft 116 kts 32°
2026-05-06 14:22 -33.68881 -53.45229 1259 ft 116 kts 314°
2026-05-06 14:22 -33.68404 -53.46000 1413 ft 110 kts 310°
2026-05-06 14:22 -33.67994 -53.46690 1654 ft 102 kts 306°
2026-05-06 14:22 -33.67692 -53.47425 1956 ft 88 kts 281°
2026-05-06 14:23 -33.67604 -53.48184 2037 ft 95 kts 292°
2026-05-06 14:23 -33.67377 -53.48923 2192 ft 96 kts 295°
2026-05-06 14:23 -33.67115 -53.49665 2302 ft 101 kts 297°
2026-05-06 14:23 -33.66750 -53.50499 2150 ft 123 kts 300°
2026-05-06 14:24 -33.66322 -53.51454 2017 ft 135 kts 300°
2026-05-06 14:24 -33.65860 -53.52478 1901 ft 143 kts 300°
2026-05-06 14:24 -33.65381 -53.53538 1789 ft 149 kts 301°
2026-05-06 14:24 -33.64877 -53.54648 1668 ft 151 kts 300°
2026-05-06 14:25 -33.64287 -53.55663 1548 ft 150 kts 314°
2026-05-06 14:25 -33.63535 -53.56506 1527 ft 145 kts 323°
2026-05-06 14:25 -33.62759 -53.57252 1520 ft 140 kts 322°
2026-05-06 14:25 -33.62015 -53.57978 1512 ft 136 kts 322°
2026-05-06 14:26 -33.61284 -53.58688 1511 ft 134 kts 322°
2026-05-06 14:26 -33.60539 -53.59354 1509 ft 133 kts 332°
2026-05-06 14:26 -33.59693 -53.59772 1508 ft 131 kts 347°
2026-05-06 14:26 -33.58802 -53.59969 1507 ft 130 kts 349°
2026-05-06 14:27 -33.57915 -53.60162 1510 ft 129 kts 349°
2026-05-06 14:27 -33.57036 -53.60352 1510 ft 129 kts 349°
2026-05-06 14:27 -33.56137 -53.60546 1516 ft 134 kts 350°
2026-05-06 14:27 -33.55198 -53.60677 1520 ft 137 kts 355°
2026-05-06 14:28 -33.54238 -53.60728 1526 ft 138 kts 356°
2026-05-06 14:28 -33.53277 -53.60775 1526 ft 138 kts 356°
2026-05-06 14:28 -33.52323 -53.60820 1527 ft 137 kts 356°
2026-05-06 14:28 -33.51345 -53.60867 1527 ft 144 kts 356°
2026-05-06 14:29 -33.50342 -53.60916 1529 ft 148 kts 356°
2026-05-06 14:29 -33.49295 -53.60973 1525 ft 153 kts 356°
2026-05-06 14:29 -33.48339 -53.61071 1526 ft 155 kts 353°
2026-05-06 14:29 -33.47256 -53.61210 1527 ft 158 kts 354°
2026-05-06 14:30 -33.46158 -53.61350 1527 ft 159 kts 353°
2026-05-06 14:30 -33.45061 -53.61493 1530 ft 159 kts 353°
2026-05-06 14:30 -33.43955 -53.61635 1525 ft 160 kts 354°
2026-05-06 14:30 -33.42847 -53.61783 1525 ft 161 kts 353°
2026-05-06 14:31 -33.41743 -53.61970 1526 ft 160 kts 351°
2026-05-06 14:31 -33.40643 -53.62193 1520 ft 160 kts 351°
2026-05-06 14:31 -33.39550 -53.62422 1520 ft 158 kts 350°
2026-05-06 14:31 -33.38477 -53.62634 1519 ft 157 kts 350°
2026-05-06 14:32 -33.37394 -53.62840 1517 ft 158 kts 351°
2026-05-06 14:32 -33.36306 -53.63047 1511 ft 159 kts 351°
2026-05-06 14:32 -33.35214 -53.63263 1515 ft 159 kts 351°
2026-05-06 14:32 -33.34114 -53.63481 1518 ft 161 kts 351°
2026-05-06 14:33 -33.33008 -53.63705 1510 ft 161 kts 351°
2026-05-06 14:33 -33.31905 -53.63937 1520 ft 161 kts 351°
2026-05-06 14:33 -33.30800 -53.64175 1522 ft 162 kts 351°
2026-05-06 14:33 -33.29689 -53.64382 1522 ft 161 kts 353°
2026-05-06 14:34 -33.28576 -53.64459 1519 ft 160 kts 356°
2026-05-06 14:34 -33.27466 -53.64521 1517 ft 159 kts 356°
2026-05-06 14:34 -33.26365 -53.64586 1519 ft 159 kts 357°
2026-05-06 14:34 -33.25251 -53.64671 1515 ft 160 kts 356°
2026-05-06 14:35 -33.24140 -53.64761 1516 ft 160 kts 356°
2026-05-06 14:35 -33.23045 -53.64850 1511 ft 159 kts 356°
2026-05-06 14:35 -33.21946 -53.64924 1516 ft 157 kts 356°
2026-05-06 14:35 -33.20858 -53.64871 1516 ft 157 kts
2026-05-06 14:36 -33.19772 -53.64691 1514 ft 158 kts
2026-05-06 14:36 -33.18699 -53.64433 1509 ft 158 kts 15°
2026-05-06 14:36 -33.17672 -53.63957 1507 ft 159 kts 19°
2026-05-06 14:36 -33.16643 -53.63468 1509 ft 159 kts 18°
2026-05-06 14:37 -33.15628 -53.62947 1514 ft 159 kts 23°
2026-05-06 14:37 -33.14644 -53.62339 1516 ft 160 kts 24°
2026-05-06 14:37 -33.13659 -53.61727 1514 ft 159 kts 24°
2026-05-06 14:37 -33.12677 -53.61118 1513 ft 159 kts 24°
2026-05-06 14:38 -33.11710 -53.60519 1516 ft 158 kts 25°
2026-05-06 14:38 -33.10731 -53.59927 1516 ft 158 kts 24°
2026-05-06 14:38 -33.09754 -53.59326 1512 ft 158 kts 24°
2026-05-06 14:38 -33.08782 -53.58722 1516 ft 158 kts 25°
2026-05-06 14:39 -33.07806 -53.58115 1512 ft 159 kts 27°
2026-05-06 14:39 -33.06959 -53.57253 1514 ft 160 kts 38°
2026-05-06 14:39 -33.06141 -53.56350 1506 ft 160 kts 38°
2026-05-06 14:39 -33.05314 -53.55458 1514 ft 161 kts 38°
2026-05-06 14:40 -33.04480 -53.54562 1522 ft 162 kts 38°
2026-05-06 14:40 -33.03638 -53.53658 1520 ft 163 kts 38°
2026-05-06 14:40 -33.02798 -53.52762 1521 ft 161 kts 39°
2026-05-06 14:40 -33.02008 -53.51812 1523 ft 162 kts 44°
2026-05-06 14:41 -33.01234 -53.50833 1521 ft 162 kts 43°
2026-05-06 14:41 -33.00463 -53.49861 1522 ft 161 kts 43°
2026-05-06 14:41 -32.99708 -53.48903 1513 ft 160 kts 43°
2026-05-06 14:41 -32.98938 -53.47943 1512 ft 160 kts 43°
2026-05-06 14:42 -32.98169 -53.46979 1511 ft 161 kts 43°
2026-05-06 14:42 -32.97406 -53.45998 1507 ft 162 kts 43°
2026-05-06 14:42 -32.96645 -53.45006 1506 ft 162 kts 44°
2026-05-06 14:42 -32.95872 -53.44026 1510 ft 163 kts 43°
2026-05-06 14:43 -32.95087 -53.43054 1517 ft 163 kts 42°
2026-05-06 14:43 -32.94317 -53.42060 1515 ft 163 kts 43°
2026-05-06 14:43 -32.93547 -53.41061 1522 ft 165 kts 44°
2026-05-06 14:43 -32.92757 -53.40073 1516 ft 163 kts 42°
2026-05-06 14:44 -32.91992 -53.39081 1516 ft 162 kts 44°
2026-05-06 14:44 -32.91219 -53.38093 1517 ft 164 kts 43°
2026-05-06 14:44 -32.90432 -53.37108 1516 ft 164 kts 43°
2026-05-06 14:45 -32.88880 -53.35146 1511 ft 159 kts 43°
2026-05-06 14:45 -32.88122 -53.34188 1517 ft 159 kts 41°
2026-05-06 14:45 -32.87300 -53.33314 1512 ft 159 kts 37°
2026-05-06 14:45 -32.86456 -53.32468 1507 ft 158 kts 36°
2026-05-06 14:46 -32.85625 -53.31628 1513 ft 156 kts 35°
2026-05-06 14:46 -32.84797 -53.30781 1511 ft 156 kts 35°
2026-05-06 14:46 -32.83931 -53.30024 1518 ft 159 kts 32°
2026-05-06 14:46 -32.83026 -53.29251 1520 ft 161 kts 32°
2026-05-06 14:47 -32.82122 -53.28477 1516 ft 160 kts 32°
2026-05-06 14:47 -32.81227 -53.27704 1516 ft 158 kts 32°
2026-05-06 14:47 -32.80328 -53.26938 1517 ft 159 kts 33°
2026-05-06 14:47 -32.79420 -53.26188 1516 ft 158 kts 32°
2026-05-06 14:48 -32.78522 -53.25448 1513 ft 156 kts 32°
2026-05-06 14:48 -32.77636 -53.24699 1511 ft 156 kts 32°
2026-05-06 14:48 -32.76751 -53.23945 1506 ft 157 kts 31°
2026-05-06 14:48 -32.75872 -53.23190 1512 ft 155 kts 32°
2026-05-06 14:49 -32.74996 -53.22440 1515 ft 155 kts 33°
2026-05-06 14:49 -32.74116 -53.21697 1516 ft 156 kts 31°
2026-05-06 14:49 -32.73231 -53.20948 1517 ft 156 kts 31°
2026-05-06 14:49 -32.72341 -53.20247 1514 ft 151 kts 28°
2026-05-06 14:50 -32.71406 -53.19702 1510 ft 149 kts 19°
2026-05-06 14:50 -32.70453 -53.19269 1512 ft 144 kts 11°
2026-05-06 14:50 -32.69459 -53.19118 1518 ft 146 kts
2026-05-06 14:50 -32.68443 -53.19178 1517 ft 146 kts 352°
2026-05-06 14:51 -32.67447 -53.19433 1523 ft 147 kts 347°
2026-05-06 14:51 -32.66505 -53.19865 1511 ft 146 kts 334°
2026-05-06 14:51 -32.65651 -53.20528 1511 ft 148 kts 321°
2026-05-06 14:51 -32.65055 -53.21522 1515 ft 150 kts 300°
2026-05-06 14:52 -32.64613 -53.22647 1522 ft 152 kts 298°
2026-05-06 14:52 -32.64174 -53.23791 1508 ft 153 kts 296°
2026-05-06 14:52 -32.63935 -53.24719 1524 ft 150 kts 290°
2026-05-06 14:53 -32.63699 -53.25823 1506 ft 146 kts 291°
2026-05-06 14:53 -32.63383 -53.26912 1505 ft 130 kts 294°
2026-05-06 14:54 -32.63084 -53.27839 1498 ft 115 kts 303°
2026-05-06 14:54 -32.62734 -53.28648 1509 ft 106 kts 302°
2026-05-06 14:54 -32.62409 -53.29409 1502 ft 98 kts 301°
2026-05-06 14:54 -32.62136 -53.30095 1488 ft 87 kts 303°
2026-05-06 14:55 -32.61882 -53.30763 1353 ft 93 kts 302°
2026-05-06 14:55 -32.61568 -53.31443 1222 ft 95 kts 307°
2026-05-06 14:55 -32.61181 -53.32098 1104 ft 97 kts 308°
2026-05-06 14:55 -32.60788 -53.32765 990 ft 100 kts 308°
2026-05-06 14:56 -32.60387 -53.33453 878 ft 102 kts 312°
2026-05-06 14:56 -32.59885 -53.34023 761 ft 99 kts 322°
2026-05-06 14:56 -32.59395 -53.34589 650 ft 98 kts 320°
2026-05-06 14:56 -32.58937 -53.35138 715 ft 89 kts 320°
2026-05-06 14:57 -32.58511 -53.35672 810 ft 89 kts 323°
2026-05-06 14:57 -32.58028 -53.36108 820 ft 86 kts 330°
2026-05-06 14:57 -32.57541 -53.36505 849 ft 85 kts 324°
2026-05-06 14:57 -32.57100 -53.36978 849 ft 87 kts 320°
2026-05-06 14:58 -32.56982 -53.37125 839 ft 88 kts 317°
2026-05-06 14:59 -32.56768 -53.37635 853 ft 102 kts 288°
2026-05-06 14:59 -32.56776 -53.38511 911 ft 115 kts 275°
2026-05-06 15:00 -32.56809 -53.39510 1033 ft 122 kts 268°
2026-05-06 15:00 -32.57074 -53.40469 1169 ft 128 kts 250°
2026-05-06 15:00 -32.57438 -53.41410 1343 ft 125 kts 250°
2026-05-06 15:00 -32.57816 -53.42351 1466 ft 133 kts 250°
2026-05-06 15:01 -32.58235 -53.43352 1489 ft 144 kts 251°
2026-05-06 15:04 -32.58395 -53.43764 1508 ft 144 kts 255°
2026-05-06 15:04 -32.58801 -53.44872 1515 ft 148 kts 255°
2026-05-06 15:04 -32.59216 -53.46014 1512 ft 152 kts 255°
2026-05-06 15:04 -32.59605 -53.47180 1520 ft 150 kts 264°
2026-05-06 15:05 -32.59673 -53.48392 1516 ft 146 kts 281°
2026-05-06 15:05 -32.59508 -53.49553 1509 ft 143 kts 293°
2026-05-06 15:05 -32.59025 -53.50551 1515 ft 141 kts 312°
2026-05-06 15:05 -32.58440 -53.51493 1502 ft 142 kts 312°
2026-05-06 15:06 -32.57868 -53.52433 1493 ft 139 kts 311°
2026-05-06 15:06 -32.57304 -53.53351 1500 ft 138 kts 311°
2026-05-06 15:06 -32.56739 -53.54262 1501 ft 136 kts 312°
2026-05-06 15:06 -32.56184 -53.55159 1507 ft 133 kts 311°
2026-05-06 15:07 -32.55627 -53.56049 1497 ft 135 kts 311°
2026-05-06 15:07 -32.55251 -53.56645 1500 ft 137 kts 312°
2026-05-06 15:07 -32.54669 -53.57572 1498 ft 142 kts 312°
2026-05-06 15:07 -32.53881 -53.58832 1497 ft 143 kts 311°
2026-05-06 15:08 -32.53302 -53.59790 1498 ft 144 kts 308°
2026-05-06 15:08 -32.52763 -53.60844 1492 ft 156 kts 297°
2026-05-06 15:08 -32.52515 -53.61678 1498 ft 161 kts 294°
2026-05-06 15:08 -32.52149 -53.62929 1510 ft 165 kts 295°
2026-05-06 15:09 -32.51780 -53.64219 1500 ft 165 kts 295°
2026-05-06 15:09 -32.51408 -53.65520 1498 ft 166 kts 294°
2026-05-06 15:09 -32.51027 -53.66795 1503 ft 164 kts 295°
2026-05-06 15:09 -32.50588 -53.68044 1503 ft 165 kts 302°
2026-05-06 15:10 -32.50063 -53.69259 1500 ft 168 kts 302°
2026-05-06 15:10 -32.49510 -53.70502 1494 ft 171 kts 302°
2026-05-06 15:10 -32.48945 -53.71732 1496 ft 168 kts 302°
2026-05-06 15:10 -32.48401 -53.72956 1499 ft 169 kts 302°
2026-05-06 15:11 -32.47864 -53.74189 1501 ft 168 kts 302°
2026-05-06 15:11 -32.47328 -53.75413 1496 ft 167 kts 303°
2026-05-06 15:11 -32.46796 -53.76642 1492 ft 168 kts 302°
2026-05-06 15:11 -32.46248 -53.77873 1518 ft 169 kts 302°
2026-05-06 15:12 -32.45712 -53.79079 1518 ft 167 kts 301°
2026-05-06 15:12 -32.45174 -53.80274 1524 ft 163 kts 303°
2026-05-06 15:12 -32.44659 -53.81492 1521 ft 167 kts 302°
2026-05-06 15:12 -32.44127 -53.82717 1523 ft 169 kts 303°
2026-05-06 15:13 -32.43576 -53.83946 1522 ft 169 kts 303°
2026-05-06 15:13 -32.42964 -53.85121 1532 ft 168 kts 309°
2026-05-06 15:13 -32.42284 -53.86216 1527 ft 165 kts 310°
2026-05-06 15:13 -32.41646 -53.87362 1515 ft 168 kts 308°
2026-05-06 15:14 -32.40984 -53.88499 1525 ft 168 kts 309°
2026-05-06 15:14 -32.40304 -53.89639 1529 ft 170 kts 309°
2026-05-06 15:14 -32.39623 -53.90789 1519 ft 171 kts 310°
2026-05-06 15:14 -32.38941 -53.91943 1521 ft 172 kts 310°
2026-05-06 15:15 -32.38254 -53.93110 1519 ft 173 kts 309°
2026-05-06 15:15 -32.37611 -53.94330 1514 ft 177 kts 299°
2026-05-06 15:15 -32.37263 -53.95727 1511 ft 175 kts 288°
2026-05-06 15:15 -32.37038 -53.97113 1500 ft 170 kts 280°
2026-05-06 15:16 -32.37089 -53.98492 1521 ft 167 kts 272°
2026-05-06 15:16 -32.37174 -53.99880 1527 ft 170 kts 273°
2026-05-06 15:16 -32.37262 -54.01248 1515 ft 167 kts 273°
2026-05-06 15:16 -32.37361 -54.02611 1517 ft 166 kts 271°
2026-05-06 15:17 -32.37540 -54.03976 1519 ft 166 kts 266°
2026-05-06 15:17 -32.37752 -54.05312 1518 ft 165 kts 266°
2026-05-06 15:17 -32.37976 -54.06633 1519 ft 161 kts 265°
2026-05-06 15:17 -32.38185 -54.07897 1514 ft 153 kts 266°
2026-05-06 15:18 -32.38345 -54.09120 1514 ft 147 kts 272°
2026-05-06 15:18 -32.38411 -54.10297 1514 ft 141 kts 274°
2026-05-06 15:18 -32.38420 -54.11427 1514 ft 136 kts 282°
2026-05-06 15:18 -32.38340 -54.12505 1511 ft 125 kts 283°
2026-05-06 15:19 -32.38295 -54.13456 1505 ft 107 kts 281°
2026-05-06 15:19 -32.38274 -54.14274 1498 ft 93 kts 282°
2026-05-06 15:19 -32.38256 -54.14997 1482 ft 84 kts 284°
2026-05-06 15:19 -32.38230 -54.15653 1513 ft 80 kts 283°
2026-05-06 15:20 -32.38192 -54.16341 1526 ft 88 kts 284°
2026-05-06 15:20 -32.38165 -54.17104 1528 ft 96 kts 281°
2026-05-06 15:20 -32.38111 -54.17832 1389 ft 81 kts 290°
2026-05-06 15:20 -32.38011 -54.18450 1319 ft 68 kts 295°
2026-05-06 15:21 -32.37905 -54.19019 1343 ft 76 kts 289°
2026-05-06 15:21 -32.37803 -54.19627 1440 ft 73 kts 295°
2026-05-06 15:21 -32.37668 -54.20193 1540 ft 72 kts 296°
2026-05-06 15:21 -32.37531 -54.20840 1554 ft 90 kts 290°
2026-05-06 15:22 -32.37433 -54.21596 1490 ft 92 kts 291°
2026-05-06 15:22 -32.37260 -54.22300 1418 ft 89 kts 300°
2026-05-06 15:22 -32.36973 -54.22950 1275 ft 89 kts 317°
2026-05-06 15:22 -32.36553 -54.23405 1232 ft 78 kts 333°
2026-05-06 15:23 -32.36111 -54.23679 1180 ft 71 kts 347°
2026-05-06 15:23 -32.35619 -54.23750 1061 ft 74 kts
2026-05-06 15:23 -32.35101 -54.23654 786 ft 73 kts 25°
2026-05-06 15:23 -32.34685 -54.23326 623 ft 71 kts 54°
2026-05-06 15:24 -32.34393 -54.22853 494 ft 70 kts 60°
2026-05-06 15:24 -32.34141 -54.22367 396 ft 66 kts 59°
2026-05-06 15:24 -32.33937 -54.21957 370 ft 44 kts 58°
2026-05-06 15:24 -32.33849 -54.21786 370 ft 10 kts 179°
2026-05-06 15:25 -32.33923 -54.21929 370 ft 26 kts 240°
2026-05-06 15:25 -32.34004 -54.22100 370 ft 20 kts 240°
2026-05-06 15:25 -32.34017 -54.22197 370 ft 11 kts 316°
2026-05-06 15:25 -32.33960 -54.22237 370 ft 9 kts 327°
2026-05-06 15:26 -32.33922 -54.22280 370 ft 7 kts 275°
2026-05-06 15:26 -32.33930 -54.22324 370 ft 3 kts 241°
2026-05-06 15:26 -32.33931 -54.22327 370 ft 0 kts 238°